SIA323 EHAM-WSSS

Flight info

Callsign SIA323
Flight time N/A
Altitude 29000
Route ARNEM L620 HMM DCT NOMKA L620 OMELO DCT PEPIK/N0491F310 DCT BUDOP DCT LUGEB DCT UDROS UM859 KARDE UN644 ROLIN DCT TAGAR DCT BT DCT BARAD M747 SUBUT T923 ERLEV M11 AMOKU/N0491F330 M11 RODAR A909 LEMOD N644 DI A466 DPN L759 KKJ/N0496F350 L759 PUT B579 VPL Y503 RINBA Y507 MAKNA Y511 TOPOR A464 ARAMA DCT TEBUN TEBUN1A
Aircraft B77W/H-SDE1E2E3FGHIJ2J3J4J5M1RWXY/LB1D1

Departure

Time 2026-04-28 16:14
Airport Amsterdam Airport Schiphol (EHAM)

Arrival

Time N/A
Airport Singapore Changi Airport (WSSS)
Time Latitude Longitude Altitude Speed Heading
2026-04-28 15:25 52.30984 4.76918 4 ft 0 kts 137°
2026-04-28 16:03 52.30992 4.76907 4 ft 2 kts 137°
2026-04-28 16:03 52.31005 4.76888 4 ft 2 kts 137°
2026-04-28 16:04 52.31015 4.76868 4 ft 2 kts 118°
2026-04-28 16:04 52.31023 4.76844 6 ft 2 kts 118°
2026-04-28 16:04 52.31031 4.76821 6 ft 3 kts 118°
2026-04-28 16:04 52.31032 4.76796 5 ft 2 kts 57°
2026-04-28 16:05 52.31019 4.76780 7 ft 2 kts 14°
2026-04-28 16:05 52.31003 4.76773 3 ft 2 kts 26°
2026-04-28 16:05 52.31001 4.76771 4 ft 0 kts 26°
2026-04-28 16:06 52.31048 4.76828 3 ft 14 kts 36°
2026-04-28 16:06 52.31131 4.76921 3 ft 14 kts 33°
2026-04-28 16:07 52.31216 4.77011 3 ft 14 kts 34°
2026-04-28 16:07 52.31297 4.77099 3 ft 14 kts 33°
2026-04-28 16:07 52.31485 4.77190 4 ft 14 kts
2026-04-28 16:08 52.31559 4.77110 3 ft 14 kts 287°
2026-04-28 16:08 52.31562 4.76948 4 ft 14 kts 268°
2026-04-28 16:08 52.31558 4.76783 4 ft 14 kts 268°
2026-04-28 16:09 52.31545 4.76458 4 ft 14 kts 265°
2026-04-28 16:09 52.31539 4.76295 4 ft 14 kts 267°
2026-04-28 16:09 52.31533 4.76132 4 ft 14 kts 266°
2026-04-28 16:10 52.31523 4.75800 4 ft 14 kts 266°
2026-04-28 16:10 52.31517 4.75638 3 ft 14 kts 266°
2026-04-28 16:10 52.31507 4.75367 3 ft 14 kts 266°
2026-04-28 16:11 52.31497 4.75041 4 ft 14 kts 268°
2026-04-28 16:11 52.31498 4.74729 4 ft 12 kts 292°
2026-04-28 16:12 52.31652 4.74707 4 ft 13 kts 46°
2026-04-28 16:12 52.31671 4.74822 3 ft 0 kts 89°
2026-04-28 16:13 52.31672 4.74880 2 ft 20 kts 89°
2026-04-28 16:13 52.31696 4.75528 1 ft 96 kts 86°
2026-04-28 16:13 52.31820 4.79363 87 ft 221 kts 88°
2026-04-28 16:14 52.31985 4.84271 1789 ft 222 kts 86°
2026-04-28 16:14 52.31380 4.89560 2390 ft 260 kts 121°
2026-04-28 16:15 52.29783 4.95117 3414 ft 275 kts 113°
2026-04-28 16:15 52.29138 4.98068 4140 ft 277 kts 107°
2026-04-28 16:15 52.28614 5.01137 4840 ft 279 kts 105°
2026-04-28 16:16 52.27593 5.07347 6100 ft 285 kts 106°
2026-04-28 16:16 52.27060 5.10492 6725 ft 288 kts 106°
2026-04-28 16:17 52.25963 5.16863 7979 ft 293 kts 106°
2026-04-28 16:17 52.25397 5.20087 8561 ft 296 kts 106°
2026-04-28 16:17 52.24825 5.23336 9157 ft 298 kts 106°
2026-04-28 16:17 52.24283 5.26596 9717 ft 300 kts 101°
2026-04-28 16:18 52.24027 5.30037 10196 ft 305 kts 94°
2026-04-28 16:18 52.23904 5.33628 10393 ft 323 kts 93°
2026-04-28 16:18 52.23795 5.36946 10543 ft 339 kts 94°
2026-04-28 16:18 52.23633 5.40977 10713 ft 358 kts 94°
2026-04-28 16:19 52.23437 5.45121 11001 ft 372 kts 95°
2026-04-28 16:19 52.23218 5.49446 11505 ft 381 kts 95°
2026-04-28 16:19 52.22918 5.53844 12087 ft 381 kts 102°
2026-04-28 16:19 52.22079 5.57957 12572 ft 387 kts 114°
2026-04-28 16:20 52.20958 5.61972 13234 ft 390 kts 114°
2026-04-28 16:20 52.19872 5.66080 13871 ft 393 kts 113°
2026-04-28 16:20 52.18827 5.70216 14476 ft 396 kts 112°
2026-04-28 16:20 52.17784 5.74436 15077 ft 400 kts 112°
2026-04-28 16:21 52.16747 5.78672 15661 ft 403 kts 112°
2026-04-28 16:21 52.15680 5.83030 16253 ft 407 kts 112°
2026-04-28 16:21 52.14644 5.87257 16806 ft 410 kts 112°
2026-04-28 16:21 52.13558 5.91679 17366 ft 414 kts 112°
2026-04-28 16:22 52.12485 5.96034 17898 ft 417 kts 112°
2026-04-28 16:22 52.11401 6.00429 18427 ft 420 kts 112°
2026-04-28 16:22 52.10292 6.04910 18947 ft 423 kts 112°
2026-04-28 16:22 52.09270 6.09342 19434 ft 425 kts 106°
2026-04-28 16:23 52.08601 6.14134 19844 ft 431 kts 99°
2026-04-28 16:23 52.08166 6.18930 20324 ft 434 kts 98°
2026-04-28 16:23 52.07774 6.23830 20829 ft 436 kts 98°
2026-04-28 16:23 52.07355 6.28768 21306 ft 439 kts 98°
2026-04-28 16:24 52.06902 6.33676 21745 ft 442 kts 99°
2026-04-28 16:24 52.06408 6.38644 22177 ft 445 kts 99°
2026-04-28 16:24 52.05895 6.43613 22603 ft 448 kts 100°
2026-04-28 16:24 52.05368 6.48602 23035 ft 451 kts 100°
2026-04-28 16:25 52.05007 6.52002 23300 ft 453 kts 100°
2026-04-28 16:25 52.04291 6.58727 23834 ft 456 kts 100°
2026-04-28 16:25 52.03928 6.62138 24103 ft 458 kts 100°
2026-04-28 16:25 52.03376 6.67313 24478 ft 461 kts 100°
2026-04-28 16:26 52.02824 6.72459 24864 ft 463 kts 100°
2026-04-28 16:26 52.02264 6.77511 25214 ft 466 kts 102°
2026-04-28 16:26 52.01520 6.82682 25569 ft 468 kts 105°
2026-04-28 16:26 52.00665 6.87805 25917 ft 470 kts 105°
2026-04-28 16:27 51.99780 6.93007 26248 ft 473 kts 105°
2026-04-28 16:27 51.98914 6.98275 26573 ft 475 kts 105°
2026-04-28 16:27 51.97242 7.08701 27192 ft 480 kts 105°
2026-04-28 16:28 51.96379 7.13906 27487 ft 482 kts 106°
2026-04-28 16:28 51.95427 7.19160 27773 ft 484 kts 107°
2026-04-28 16:28 51.94435 7.24424 28055 ft 486 kts 107°
2026-04-28 16:28 51.93447 7.29620 28321 ft 488 kts 107°
2026-04-28 16:29 51.91439 7.40271 28825 ft 492 kts 107°
2026-04-28 16:29 51.89448 7.50905 28984 ft 495 kts 107°
2026-04-28 16:30 51.88445 7.56253 28996 ft 498 kts 107°
2026-04-28 16:30 51.86395 7.67133 29007 ft 501 kts 107°
2026-04-28 16:31 51.84581 7.78093 28997 ft 501 kts 103°
2026-04-28 16:31 51.83144 7.89167 29005 ft 501 kts 102°
2026-04-28 16:32 51.81714 8.00233 29001 ft 501 kts 102°
2026-04-28 16:32 51.79531 8.16378 29002 ft 501 kts 103°
2026-04-28 16:33 51.78257 8.25586 29003 ft 501 kts 103°
2026-04-28 16:33 51.76463 8.38471 28997 ft 501 kts 103°
2026-04-28 16:34 51.74904 8.49592 29004 ft 501 kts 103°
2026-04-28 16:34 51.73356 8.60563 29003 ft 501 kts 103°
2026-04-28 16:35 51.71798 8.71525 29001 ft 501 kts 103°
2026-04-28 16:35 51.70219 8.82553 28999 ft 501 kts 103°
2026-04-28 16:36 51.68643 8.93481 29004 ft 501 kts 103°
2026-04-28 16:36 51.67056 9.04406 29003 ft 501 kts 103°
2026-04-28 16:37 51.65443 9.15434 29003 ft 501 kts 103°
2026-04-28 16:38 51.63024 9.31824 29001 ft 501 kts 103°
2026-04-28 16:38 51.61668 9.40939 28996 ft 501 kts 104°
2026-04-28 16:39 51.60037 9.51830 29002 ft 501 kts 104°
2026-04-28 16:39 51.58390 9.62756 29003 ft 501 kts 104°
2026-04-28 16:40 51.56729 9.73699 29002 ft 501 kts 104°
2026-04-28 16:40 51.55072 9.84537 29002 ft 501 kts 104°
2026-04-28 16:41 51.53395 9.95438 29002 ft 501 kts 104°
2026-04-28 16:41 51.51695 10.06412 29006 ft 501 kts 104°
2026-04-28 16:42 51.49998 10.17296 29004 ft 501 kts 104°
2026-04-28 16:42 51.48299 10.28116 29001 ft 501 kts 104°
2026-04-28 16:43 51.46583 10.38982 29000 ft 501 kts 104°
2026-04-28 16:43 51.44859 10.49829 29002 ft 501 kts 104°
2026-04-28 16:44 51.43128 10.60692 28999 ft 501 kts 104°
2026-04-28 16:44 51.41386 10.71594 29003 ft 501 kts 104°
2026-04-28 16:45 51.39633 10.82492 29004 ft 501 kts 104°
2026-04-28 16:45 51.37891 10.93257 29000 ft 501 kts 105°
2026-04-28 16:46 51.36131 11.04166 29000 ft 501 kts 104°
2026-04-28 16:46 51.34380 11.15024 29002 ft 501 kts 105°
2026-04-28 16:47 51.32623 11.25839 29001 ft 501 kts 105°
2026-04-28 16:47 51.30841 11.36724 29004 ft 501 kts 105°
2026-04-28 16:48 51.29066 11.47507 29004 ft 501 kts 105°
2026-04-28 16:48 51.27205 11.58219 29003 ft 501 kts 105°
2026-04-28 16:49 51.25379 11.69130 29003 ft 501 kts 105°
2026-04-28 16:49 51.23597 11.79880 29003 ft 501 kts 105°
2026-04-28 16:50 51.21790 11.90627 29001 ft 501 kts 105°
2026-04-28 16:50 51.19949 12.01420 29003 ft 501 kts 105°
2026-04-28 16:51 51.18091 12.12124 29000 ft 501 kts 105°
2026-04-28 16:51 51.16222 12.22870 29001 ft 501 kts 105°
2026-04-28 16:52 51.14645 12.31866 29005 ft 501 kts 106°
2026-04-28 16:52 51.12762 12.42522 28998 ft 501 kts 106°
2026-04-28 16:53 51.10862 12.53238 29001 ft 501 kts 106°
2026-04-28 16:53 51.08952 12.63943 29002 ft 501 kts 106°
2026-04-28 16:54 51.07017 12.74612 29002 ft 501 kts 106°
2026-04-28 16:54 51.05069 12.85269 29001 ft 501 kts 106°
2026-04-28 16:55 51.03110 12.95947 28999 ft 501 kts 107°
2026-04-28 16:55 51.01146 13.06599 29000 ft 501 kts 107°
2026-04-28 16:56 50.99176 13.17223 29004 ft 501 kts 107°
2026-04-28 16:56 50.97190 13.27883 28999 ft 501 kts 107°
2026-04-28 16:57 50.95242 13.38523 29003 ft 501 kts 105°
2026-04-28 16:57 50.93373 13.49218 29005 ft 501 kts 106°
2026-04-28 16:58 50.91381 13.59901 28999 ft 501 kts 107°
2026-04-28 16:58 50.89371 13.70506 29001 ft 501 kts 107°
2026-04-28 16:59 50.87391 13.81065 29001 ft 501 kts 107°
2026-04-28 16:59 50.85377 13.91759 29003 ft 501 kts 108°
2026-04-28 17:00 50.82387 14.01617 29003 ft 500 kts 125°
2026-04-28 17:00 50.77794 14.09854 29009 ft 500 kts 136°
2026-04-28 17:01 50.72854 14.17458 28993 ft 500 kts 135°